OH6DL-15 Weather Reports


Display with metric or nautical units.
time (UTC)temp
F
wind
direction
speed
MPH
gust
MPH
rain 1hr
in
rain 24hr
in
rain mn
in
humidity
%
barometer
mb
20260906070903 48 6 6.0 15.0 0.00 0.09 0.00 76 1007.7
20260906070003 48 349 4.0 18.0 0.00 0.09 0.00 76 1007.7
20260906065403 49 18 4.0 17.0 0.00 0.09 0.00 78 1007.5
20260906064713 49 51 2.0 15.0 0.00 0.09 0.00 77 1007.5
20260906063603 48 22 1.0 17.0 0.00 0.09 0.00 82 1007.5
20260906062913 48 4 4.0 14.0 0.00 0.09 0.00 82 1007.1
20260906061803 48 351 5.0 20.0 0.00 0.09 0.00 84 1006.9
20260906060903 48 343 4.0 14.0 0.00 0.09 0.00 84 1007.0
20260906060003 48 2 2.0 11.0 0.00 0.09 0.00 86 1006.7
20260906055616 48 349 2.0 11.0 0.00 0.09 0.00 87 1006.7
20260906054714 47 352 4.0 11.0 0.00 0.09 0.00 87 1006.7
20260906053603 47 8 2.0 11.0 0.00 0.09 0.00 88 1006.4
20260906052703 47 355 4.0 11.0 0.00 0.09 0.00 89 1006.3
20260906051804 47 354 2.0 11.0 0.00 0.09 0.00 89 1006.4
20260906050903 47 325 3.0 11.0 0.00 0.09 0.00 89 1006.4
20260906050003 47 333 2.0 9.0 0.00 0.09 0.00 89 1006.2
20260906045617 47 336 2.0 9.0 0.00 0.09 0.00 90 1006.2
20260906044503 47 330 1.0 11.0 0.00 0.09 0.00 90 1006.3
20260906043603 47 336 4.0 11.0 0.00 0.09 0.00 91 1006.2
20260906042703 47 336 4.0 11.0 0.00 0.09 0.00 92 1005.9
20260906041803 47 352 2.0 11.0 0.00 0.09 0.00 93 1006.0
20260906040905 47 359 3.0 8.0 0.00 0.09 0.00 94 1006.0
20260906040004 47 341 2.0 9.0 0.00 0.09 0.00 94 1006.0
20260906035403 47 344 4.0 9.0 0.00 0.09 0.00 94 1006.0
20260906034503 47 314 3.0 7.0 0.00 0.09 0.00 95 1005.8
20260906033603 47 342 3.0 9.0 0.00 0.09 0.00 95 1005.7
20260906032703 47 348 2.0 7.0 0.00 0.09 0.00 95 1005.9
20260906031803 48 339 2.0 11.0 0.00 0.09 0.00 95 1005.9
20260906030903 48 337 1.0 11.0 0.00 0.09 0.00 95 1005.7
20260906030003 48 339 3.0 7.0 0.00 0.09 0.00 95 1005.6
20260906025403 48 333 1.0 6.0 0.00 0.09 0.00 95 1005.5
20260906024503 48 347 2.0 7.0 0.00 0.09 0.00 96 1005.5
20260906023603 48 344 1.0 9.0 0.00 0.09 0.00 96 1005.4
20260906022703 48 339 4.0 8.0 0.00 0.09 0.00 96 1005.2
20260906021803 48 339 3.0 7.0 0.00 0.09 0.00 96 1005.1
20260906021115 48 338 1.0 8.0 0.00 0.09 0.00 97 1005.1
20260906020212 48 349 3.0 8.0 0.00 0.09 0.00 97 1005.2
20260906015614 47 337 4.0 8.0 0.00 0.09 0.00 97 1005.2
20260906014503 47 1 1.0 8.0 0.00 0.09 0.00 97 1005.0
20260906013603 47 6 2.0 4.0 0.00 0.09 0.00 97 1004.9
20260906012703 47 354 0.0 7.0 0.00 0.09 0.00 98 1004.7
20260906011803 47 8 1.0 8.0 0.00 0.09 0.00 98 1004.9
20260906010903 47 352 2.0 8.0 0.00 0.09 0.00 98 1004.7
20260906010213 47 335 3.0 7.0 0.00 0.09 0.00 98 1004.6
20260906005403 47 2 2.0 8.0 0.00 0.09 0.00 97 1004.6
20260906004503 47 4 2.0 7.0 0.00 0.09 0.00 97 1004.7
20260906003603 47 356 2.0 7.0 0.00 0.09 0.00 97 1004.4
20260906002703 47 6 1.0 6.0 0.00 0.09 0.00 97 1004.6
20260906001803 47 23 1.0 9.0 0.00 0.09 0.00 97 1004.7
20260906000903 47 356 3.0 7.0 0.00 0.09 0.00 96 1004.3
20260906000003 47 28 3.0 6.0 0.00 0.09 0.00 96 1004.3
20260905235403 47 38 2.0 8.0 0.00 0.09 0.00 96 1004.1
20260905234503 47 27 2.0 9.0 0.00 0.09 0.00 96 1004.1
20260905233603 47 19 1.0 11.0 0.00 0.09 0.00 96 1004.3
20260905232703 47 25 4.0 9.0 0.00 0.09 0.00 97 1004.1
20260905231803 47 9 1.0 9.0 0.00 0.09 0.00 96 1004.0
20260905230903 47 18 0.0 7.0 0.00 0.09 0.00 96 1003.9
20260905230003 47 23 2.0 7.0 0.00 0.09 0.00 97 1003.8
20260905225616 47 28 2.0 8.0 0.00 0.09 0.00 97 1003.7
20260905224503 48 48 2.0 7.0 0.00 0.09 0.00 96 1003.5
20260905223815 48 40 0.0 13.0 0.00 0.09 0.00 97 1003.4
20260905222703 49 3 0.0 11.0 0.00 0.09 0.00 97 1003.4
20260905221803 49 353 3.0 7.0 0.00 0.09 0.00 96 1003.4
20260905221113 49 4 2.0 11.0 0.00 0.09 0.00 95 1003.4
20260905220003 49 20 0.0 9.0 0.00 0.09 0.00 94 1003.1
20260905215403 49 38 2.0 8.0 0.00 0.09 0.00 95 1003.0
20260905214714 49 38 1.0 6.0 0.00 0.09 0.00 95 1003.0
20260905213603 49 1 1.0 6.0 0.00 0.09 0.00 95 1002.8
20260905212703 49 4 2.0 4.0 0.00 0.09 0.00 95 1002.9
20260905211805 49 345 1.0 4.0 0.00 0.09 0.00 95 1002.8
20260905210903 49 5 0.0 8.0 0.00 0.09 0.00 95 1002.8
20260905210004 49 16 1.0 4.0 0.00 0.09 0.00 95 1002.6
20260905205403 49 8 0.0 7.0 0.00 0.09 0.09 95 1002.6
20260905204714 49 14 0.0 7.0 0.00 0.09 0.09 95 1002.5
20260905203603 49 359 2.0 7.0 0.00 0.09 0.09 95 1002.5
20260905202703 49 57 2.0 7.0 0.00 0.09 0.09 94 1002.5
20260905201803 49 37 1.0 7.0 0.00 0.09 0.09 94 1002.4
20260905200903 49 26 0.0 6.0 0.00 0.09 0.09 94 1002.4
20260905200216 49 24 2.0 7.0 0.00 0.09 0.09 94 1002.4
20260905195403 49 28 0.0 6.0 0.00 0.09 0.09 95 1002.2
20260905194503 49 35 0.0 4.0 0.00 0.09 0.09 96 1002.3
20260905193603 49 14 1.0 8.0 0.00 0.09 0.09 97 1002.1
20260905192915 49 7 2.0 8.0 0.00 0.09 0.09 97 1001.9
20260905191803 50 354 2.0 4.0 0.00 0.09 0.09 95 1002.3
20260905191114 50 20 0.0 6.0 0.00 0.09 0.09 94 1002.0
20260905190003 50 30 2.0 8.0 0.00 0.09 0.09 93 1002.0
20260905185403 50 18 1.0 9.0 0.00 0.09 0.09 93 1001.8
20260905184503 50 29 2.0 11.0 0.00 0.09 0.09 93 1001.6
20260905183813 50 35 2.0 8.0 0.00 0.09 0.09 93 1001.7
20260905182915 50 40 2.0 8.0 0.00 0.09 0.09 93 1001.7
20260905181803 50 50 2.0 11.0 0.00 0.09 0.09 93 1001.7
20260905180903 50 40 2.0 11.0 0.00 0.09 0.09 93 1001.6
20260905180003 50 18 2.0 11.0 0.00 0.09 0.09 92 1001.6
20260905175403 50 50 0.0 7.0 0.00 0.09 0.09 92 1001.4
20260905174503 51 26 2.0 11.0 0.00 0.09 0.09 92 1001.2
20260905173603 51 352 2.0 11.0 0.00 0.09 0.09 93 1001.0
20260905172703 51 354 1.0 13.0 0.00 0.09 0.09 93 1001.1
20260905171803 51 9 5.0 14.0 0.00 0.09 0.09 92 1000.8
20260905170903 51 30 2.0 11.0 0.00 0.09 0.09 93 1000.8
20260905170003 51 28 3.0 11.0 0.00 0.09 0.09 92 1000.5
20260905165403 51 41 4.0 13.0 0.00 0.09 0.09 92 1000.5
20260905164503 52 64 2.0 4.0 0.00 0.09 0.09 92 1000.6
20260905163603 52 17 1.0 9.0 0.00 0.09 0.09 92 1000.3
20260905162703 53 34 2.0 11.0 0.00 0.09 0.09 92 1000.2
20260905161803 53 49 0.0 7.0 0.00 0.09 0.09 92 1000.0
20260905161116 53 28 2.0 7.0 0.00 0.09 0.09 92 1000.0
20260905160003 53 31 1.0 14.0 0.00 0.09 0.09 92 1000.1
20260905155403 53 29 2.0 14.0 0.00 0.09 0.09 92 1000.1
20260905154503 53 23 1.0 11.0 0.00 0.09 0.09 94 1000.0
20260905153603 53 355 3.0 9.0 0.00 0.09 0.09 94 999.5
20260905152703 53 358 2.0 8.0 0.00 0.09 0.09 94 999.5
20260905151803 53 32 1.0 8.0 0.00 0.09 0.09 94 999.4
20260905150903 53 24 2.0 11.0 0.00 0.09 0.09 94 999.4
20260905150003 53 39 1.0 9.0 0.00 0.09 0.09 96 999.2
20260905145404 54 41 2.0 4.0 0.00 0.09 0.09 96 999.5
20260905144503 54 341 2.0 7.0 0.02 0.09 0.09 96 999.0
20260905143604 54 5 1.0 8.0 0.04 0.09 0.09 97 998.9
20260905142706 53 15 2.0 8.0 0.04 0.09 0.09 97 999.0
20260905141803 54 358 3.0 7.0 0.04 0.09 0.09 97 998.6
20260905140903 54 31 1.0 6.0 0.04 0.09 0.09 97 998.6
20260905140004 53 13 0.0 7.0 0.04 0.09 0.09 97 998.8
20260905135403 53 11 1.0 14.0 0.04 0.09 0.09 96 998.6
20260905134504 56 355 5.0 14.0 0.01 0.07 0.07 89 998.7
20260905133603 57 18 0.0 2.0 0.00 0.06 0.06 92 998.4
20260905132703 55 14 1.0 11.0 0.00 0.06 0.06 94 998.4
20260905131803 57 346 4.0 9.0 0.00 0.06 0.06 86 998.2
20260905130903 58 351 2.0 9.0 0.00 0.06 0.06 82 998.2
20260905130004 57 319 3.0 9.0 0.00 0.06 0.06 84 998.0
20260905125403 57 332 2.0 7.0 0.00 0.06 0.06 84 998.0
20260905124503 57 335 2.0 6.0 0.00 0.06 0.06 84 997.9
20260905123603 57 359 1.0 11.0 0.00 0.06 0.06 84 997.9
20260905122703 58 309 2.0 7.0 0.00 0.06 0.06 85 997.9
20260905121803 58 308 2.0 7.0 0.00 0.06 0.06 84 997.8
20260905120903 59 301 2.0 4.0 0.00 0.06 0.06 85 997.6
20260905120003 58 312 2.0 8.0 0.00 0.06 0.06 87 997.6
20260905115403 57 296 2.0 4.0 0.00 0.06 0.06 87 997.5
20260905114503 57 299 2.0 4.0 0.00 0.06 0.06 89 997.6
20260905113812 57 304 2.0 4.0 0.00 0.06 0.06 89 997.5
20260905112915 57 318 2.0 4.0 0.00 0.06 0.06 92 997.4
20260905111803 55 324 3.0 6.0 0.00 0.06 0.06 92 997.6
20260905110903 55 334 1.0 8.0 0.04 0.06 0.06 96 997.6
20260905110003 55 334 1.0 8.0 0.06 0.06 0.06 96 997.3
20260905105403 54 295 2.0 4.0 0.06 0.06 0.06 96 997.4
20260905104716 55 296 2.0 6.0 0.06 0.06 0.06 96 997.2
20260905103603 54 325 2.0 4.0 0.06 0.06 0.06 98 997.3
20260905102703 54 358 1.0 6.0 0.06 0.06 0.06 98 997.2
20260905102013 53 307 1.0 7.0 0.06 0.06 0.06 98 997.1
20260905100904 55 308 1.0 6.0 0.02 0.02 0.02 94 996.9
20260905100217 55 300 2.0 4.0 0.00 0.00 0.00 91 997.0
20260905095403 55 298 2.0 4.0 0.00 0.00 0.00 91 996.9
20260905094503 55 309 1.0 4.0 0.00 0.00 0.00 90 996.8
20260905093603 55 316 1.0 4.0 0.00 0.00 0.00 90 996.7
20260905092703 55 327 2.0 6.0 0.00 0.00 0.00 91 996.8
20260905091803 55 335 2.0 4.0 0.00 0.00 0.00 92 996.9
20260905090903 54 294 2.0 4.0 0.00 0.00 0.00 93 996.8
20260905090003 54 313 2.0 4.0 0.00 0.00 0.00 96 996.8
20260905085405 54 292 2.0 4.0 0.00 0.00 0.00 96 996.7
20260905084504 54 310 2.0 6.0 0.00 0.00 0.00 98 996.8
20260905083603 53 311 2.0 6.0 0.00 0.00 0.00 99 996.6
20260905082703 53 301 2.0 4.0 0.00 0.00 0.00 99 996.5
20260905081803 53 310 1.0 4.0 0.00 0.00 0.00 99 996.7
20260905080903 52 313 1.0 4.0 0.00 0.00 0.00 99 996.6
20260905080004 52 311 2.0 4.0 0.00 0.00 0.00 99 996.5
20260905075403 51 311 2.0 4.0 0.00 0.00 0.00 99 996.5
20260905074505 51 305 1.0 6.0 0.00 0.00 0.00 99 996.4
20260905073603 51 306 1.0 4.0 0.00 0.00 0.00 99 996.3
20260905072703 51 315 0.0 4.0 0.00 0.00 0.00 99 996.2
20260905071803 51 314 2.0 4.0 0.00 0.00 0.00 99 996.3